HULIANWANG DIGUI-118
导读 | 豆包AI
HULIANWANG DIGUI-118是一颗由中国于2025年12月8日发射的低轨卫星,隶属于互联网星座系统,主要承载卫星互联网相关技术试验与服务运营任务。该卫星的成功发射,进一步完善了中国低轨互联网星座的组网布局,为后续构建覆盖全球的天基互联网基础设施、提供更稳定的宽带通信服务奠定了基础。
Basic Information
目录编号:
66957
目录名称:
HULIANWANG DIGUI-118
国际标识:
2025-287E
轨道中心:
EARTH
卫星名称:
HULIANWANG DIGUI-118
卫星全名:
HULIANWANG DIGUI-118
卫星状态:
在轨 (已飞行168 天)
发射日期:
2025-12-08 UTC
国别 :
中国
(CN)
星等 :
--
Orbit Information
| 数据来源 | 国际轨道数据 | AOE轨道数据 |
| 星历时间 | 2026-05-24T11:54:28+0800 1天前 查看轨道信息 | 2026-05-23T03:00:00+0800 2天前 查看轨道信息 |
| 半长轴 | 7546.054km | 7546.056km |
| 偏心率 | 0.0001527 | 0.0001644 |
| 轨道倾角 | 86.490° | 86.489° |
| 近地点辐角 | 109.971° | 116.049° |
| 升交点赤经 | 290.450° | 290.914° |
| 平近点角 | 250.159° | 190.277° |
| 近地点 | 1166.764km | 1166.678km |
| 远地点 | 1169.07km | 1169.16km |
| 周期 | 108.728分钟 | 108.728分钟 |
| 每日圈数 | 13.244114 | 13.244111 |
Detailed Information
使用方式:
暂无
2D Orbit Map
3D Orbit Map
Orbit Altitude Analysis Chart
Orbit Inclination Analysis Chart
Orbit Comprehensive Analysis Chart
View Comprehensive Chart

